Погода в Новоскатовке

Россия / Омская область     54°20′10″N   72°17′03″E
темп.,
°C
ветер,
м/с
пор.,
м/с
влажн.,
%
обл.,
%
осадки,
мм/ч
давл.,
гПа
погр.,
м
25 октября, пн
пн2500:00+9ююз7155995 0.0 1015538
03:00+8юз8164884 0.0 1014513
06:00+8юз7164488 0.0 1013488
09:00+8зюз6124496 0.0 1014549
12:00+9зюз51046100 0.0 1015492
15:00+9зюз4654100 0.0 1015453
18:00+8ююз2460100 0.0 1015102
21:00+8ююв3763100 0.0 1014155
26 октября, вт
вт2600:00+8ююв2359100 0.4 101168
03:00+9ююз51259100 0.0 1008443
06:00+8ююз61269100 0.0 1005421
09:00+6з71184100 0.3 10051102
12:00+4зсз8127497 0.4 10091092
15:00+4зсз91269100 0.1 10121451
18:00+2сз711545 0.1 10171166
21:000зсз611564 0.0 1020694
27 октября, ср
ср2700:00−1з49630 0.0 1023335
03:00−2зюз377177 0.0 1025172
06:00−2юз377088 0.0 1025189
09:00−2юз496663 0.0 1026332
12:00+2зюз694771 0.0 1025685
15:00+4зюз793758 0.0 10241156
18:00+2зюз484611 0.0 1024159
21:00+1юз3751100 0.0 1025134
28 октября, чт
чт2800:000юз365377 0.0 1024137
03:00−1ююз47576 0.0 1024111
06:00−1ююз495485 0.0 1023174
09:00−1ююз51150100 0.0 1022284
12:00+3юз71139100 0.0 1020576
15:00+6юз71137100 0.0 1018908
18:00+5ююз71340100 0.0 1016577
21:00+4юз81643100 0.0 1014653
29 октября, пт
пт2900:00+5юз81542100 0.0 1013848
03:00+5зюз8144138 0.0 1012882
06:00+3зюз815545 0.0 1013599
09:00+2юз8156267 0.0 1013561
12:00+5зюз81358100 0.0 1014795
15:00+6зюз8115699 0.0 10141086
18:00+5юз61257100 0.0 1014678
21:00+5юз7145799 0.0 1013698